Location: Arrodets-la-Barthe
(43.0306°N, 0.2829°E)
Time: 00:40:14
(UTC+00:00)

Cosmos 2344 - Pass Details

Date: 07 June 2022
Orbit: 1228 x 3015 km, 63.3° (Epoch: 04 July)

Event Time Altitude Azimuth Distance (km) Brightness Sun altitude
Rises 20:38:30 0° 260° (W) 4,207 6.9 -9.8°
Reaches altitude 10° 20:41:43 10° 272° (W) 3,193 6.4 -10.2°
Maximum altitude 20:47:57 28° 331° (NNW) 2,155 5.7 -11.0°
Drops below altitude 10° 20:54:42 10° 29° (NNE) 3,471 6.1 -11.8°
Sets 20:58:25 0° 41° (NE) 4,642 6.6 -12.3°
